Regional Weather Roundup
Issued by NWS Midland/Odessa, TX

Skip options and go directly to product.
Home | Oldest Version | Previous Version | Current Version | All | Text Only | Save Text | Print | Product List | Glossary Off

Skip product version selection by date and time.   

261
ASUS44 KMAF 181110
RWRMAF
MIDLAND AREA WEATHER ROUNDUP
NATIONAL WEATHER SERVICE MIDLAND TX
500 AM CST THU DEC 18 2014

...IN SOUTHWEST TEXAS AND SOUTHEAST NEW MEXICO...

CITY           SKY/WX    TMP DP  RH WIND       PRES   REMARKS
ALPINE         PTCLDY    34  27  75 SW6       30.19S WCI  29
ANDREWS        FAIR      43  31  61 W9        30.08S WCI  38
ARTESIA        CLEAR     36  30  80 S9        30.09S WCI  29
BIG SPRING     CLEAR     38  36  90 CALM      30.09S
CARLSBAD       PTCLDY    46  33  60 S6        30.07S
DRYDEN           N/A     44  43  96 S5        30.08R
FORT STOCKTON  CLEAR     44  29  55 SW12      30.10S WCI  38
GUAD PASS      NOT AVBL
HOBBS          CLEAR     36  30  80 W6        30.08S WCI  31
MARFA          PTCLDY    25  19  80 N5        30.15F WCI  19
MIDLAND AIRPK  CLEAR     48  34  58 SW9       30.08S
MIDLAND INTL   CLEAR     42  35  76 W8        30.07S WCI  37
ODESSA         CLEAR     40  33  76 SW6       30.08S WCI  36
PECOS          CLEAR     37  28  69 SW10      30.09S WCI  30
PRESIDIO       FAIR      46  30  55 N8        30.10F
SEMINOLE       CLEAR     43  32  63 W10       30.08R WCI  37
SNYDER         CLEAR     37  36  99 S8        30.06S FOG     WCI  30
WINK           CLEAR     42  27  55 N5        30.07S WCI  39
$$
...OTHER STATIONS IN TEXAS...

CITY           SKY/WX    TMP DP  RH WIND       PRES   REMARKS
ABILENE        CLEAR     46  44  93 W3        30.06S FOG
AMARILLO       CLOUDY    34  33  96 NW5       30.03R FOG     WCI  30
AUSTIN         DRZL/FOG  48  48 100 N8        30.08F VSB 3/4
BROWNSVILLE    CLOUDY    71  68  90 SE7       30.00S
CORPUS CHRISTI CLOUDY    68  66  93 SE6       30.00S
DALLAS FTW     DRIZZLE   42  41  96 E5        30.10F FOG     WCI  39
DEL RIO        CLOUDY    53  51  93 NW10      30.08R FOG
EL PASO        MOCLDY    41  34  76 E3        30.13S
HOUSTON INT    LGT RAIN  59  58  96 NE5       30.05F
LUBBOCK        CLEAR     33  30  88 W8        30.03S WCI  26
SAN ANGELO     CLOUDY    48  46  93 SW8       30.08S
SAN ANTONIO    DRZL/FOG  57  55  93 N5        30.05F VSB 3/4
WACO           CLOUDY    46  45  96 E5        30.09F FOG
WICHITA FALLS  NOT AVBL
$$
...OTHER LOCATIONS IN NEW MEXICO...

CITY           SKY/WX    TMP DP  RH WIND       PRES   REMARKS
ALAMAGORDO     PTCLDY    46  36  66 E3        30.12F
ALBUQUERQUE    PTCLDY    30  28  92 E6        30.13S WCI  24
CANNON AFB     CLEAR     34  28  76 W13       30.04R WCI  25
CLOVIS         CLEAR     32  25  74 W7        30.03R WCI  26
HOLLOMAN AFB   PTCLDY    43  36  74 SE7       30.10S WCI  39
ROSWELL        CLEAR     31  26  82 N6        30.08R WCI  25
RUIDOSO        PTCLDY    36  23  60 W15G23    30.08S WCI  26
SANTA FE       PTCLDY    26  22  84 CALM      30.09R
TRUTH OR CONSE CLOUDY    39  30  70 CALM      30.12R
TUCUMCARI      MOCLDY    26  24  92 NE6       30.02R FOG     WCI  19
$$

USA.gov is the U.S. government's official web portal to all federal, state and local government web resources and services.